Flag for Puerto Rico Weather past 2 weeks in Caguas, Puerto Rico

Now
82 °F

Passing clouds.


Feels Like: 89 °F
Forecast: 76 / 89 °F
Wind: 10 mph from East

Location: Luis Munoz Marin

Current Time: Jul 30, 2015 at 11:40:19 PM

Latest Report: Jul 30, 2015 at 10:56 PM


Visibility: 10 mi

Pressure: 30.08 "Hg

Humidity: 82%

Dew point: 76 °F

Location of CaguasLocation

Historic Weather in Caguas — Graph

°F

Caguas temperature yesterday

Maximum temperature yesterday: 89 °F (at 11:56 AM)
Minimum temperature yesterday: 80 °F (at 1:56 AM)
Average temperature yesterday: 84 °F

Past Weeks' High & Low Weather Summary

 TemperatureHumidityPressure
High93 °F (Jul 22, 2:56 PM)100% (Jul 21, 4:56 AM)30.12 "Hg (Jul 21, 4:56 AM)
Low76 °F (Jul 19, 3:56 AM)52% (Jul 22, 2:56 PM)29.96 "Hg (Jul 21, 4:56 PM)
Average83 °F78%30.04 "Hg
* Reported Jul 15 9:56 PM — Jul 30 9:56 PM, Caguas, Weather by CustomWeather, © 2015

Note: Actual official high and low records may vary slightly from our data, if they occured in-between our weather recording intervals... More about our weather records

Advertising

Caguas weather history for previous 24 hours

 ConditionsComfort  
Time TempWeatherWind HumidityBarometerVisibility
9:56 PM
Thu, Jul 30
83 °FPassing clouds.7 mph79%30.07 "Hg10 mi
8:56 PM83 °FPassing clouds.14 mph79%30.05 "Hg10 mi
7:56 PM83 °FScattered clouds.13 mph82%30.03 "Hg10 mi
6:56 PM83 °FScattered clouds.15 mph79%30.01 "Hg10 mi
5:56 PM85 °FScattered clouds.16 mph77%30.00 "Hg10 mi
4:56 PM86 °FScattered clouds.16 mph72%29.99 "Hg10 mi
3:56 PM88 °FScattered clouds.18 mph70%30.01 "Hg10 mi
2:56 PM90 °FPassing clouds.20 mph63%30.01 "Hg10 mi
1:56 PM89 °FScattered clouds.17 mph68%30.02 "Hg10 mi
12:56 PM89 °FScattered clouds.21 mph68%30.05 "Hg10 mi
11:56 AM89 °FScattered clouds.18 mph68%30.06 "Hg10 mi
10:56 AM88 °FScattered clouds.21 mph65%30.06 "Hg10 mi
9:56 AM86 °FScattered clouds.18 mph72%30.07 "Hg10 mi
8:56 AM83 °FLight rain. Scattered clouds.9 mph82%30.07 "Hg10 mi
7:56 AM83 °FScattered clouds.7 mph77%30.06 "Hg10 mi
6:56 AM81 °FPassing clouds.6 mph82%30.05 "Hg10 mi
5:56 AM81 °FPassing clouds.6 mph79%30.03 "Hg10 mi
4:56 AM81 °FPassing clouds.6 mph79%30.03 "Hg10 mi
3:56 AM80 °FPassing clouds.6 mph81%30.02 "Hg10 mi
2:56 AM81 °FPassing clouds.10 mph79%30.03 "Hg10 mi
1:56 AM81 °FPassing clouds.6 mph79%30.03 "Hg10 mi
12:56 AM81 °FPassing clouds.13 mph79%30.05 "Hg10 mi
11:56 PM
Wed, Jul 29
82 °FPassing clouds.13 mph77%30.06 "Hg10 mi
Weather by CustomWeather, © 2015

See weather overviewHow to use our weather pages